This demonstration page uses our WeatherBlox Daily Observations layout. Learn more.

Left ArrowRight Arrow

34.02893, -84.19858

Hourly Observations for February 28, 2020

Temp ( °F °C ) Dew Point ( °F °C ) Humidity (%) Winds ( mph kmh ) Pressure ( in mb ) Visibility ( mi km ) Precip ( " mm )
12:53 am 00:53 Clear 34 1.1 23 -5 64 64 Calm 30.21 1023 10 16 0.00 0.00
1:53 am 01:53 Clear 28 -2.2 23 -5 81 81 S 3 6 30.21 1023 10 16 0.00 0.00
2:53 am 02:53 Clear 30 -1.1 23 -5 75 75 Calm 30.20 1023 10 16 0.00 0.00
3:53 am 03:53 Clear 30 -1.1 22 -5.6 72 72 SW 5 7 30.19 1023 10 16 0.00 0.00
4:53 am 04:53 Cloudy 32 0 24 -4.4 73 73 WSW 6 9 30.19 1022 10 16 0.00 0.00
5:53 am 05:53 Mostly Clear 31 -0.6 23 -5 72 72 SW 5 7 30.19 1022 10 16 0.00 0.00
6:53 am 06:53 Mostly Cloudy 29 -1.7 23 -5 78 78 WSW 5 7 30.19 1022 10 16 0.00 0.00
7:53 am 07:53 Sunny 31 -0.6 24 -4.4 76 76 WSW 5 7 30.19 1023 10 16 0.00 0.00
8:53 am 08:53 Sunny 37 2.8 25 -3.9 62 62 WSW 7 11 30.19 1023 10 16 0.00 0.00
9:53 am 09:53 Mostly Cloudy 41 5 25 -3.9 53 53 WSW 10 17 30.19 1022 10 16 0.00 0.00
10:53 am 10:53 Mostly Cloudy 46 7.8 26 -3.3 46 46 WNW 13 20 30.18 1022 10 16 0.00 0.00
11:53 am 11:53 Cloudy 47 8.3 25 -3.9 42 42 WNW 9 15 30.17 1022 10 16 0.00 0.00
12:53 pm 12:53 Cloudy 47 8.3 28 -2.2 48 48 W 15 24 30.14 1021 10 16 0.00 0.00
1:53 pm 13:53 Cloudy with Light Rain 45 7.2 33 0.6 63 63 W 14 22 30.13 1020 10 16 0.00 0.00
2:53 pm 14:53 Cloudy 48 8.9 30 -1.1 50 50 WNW 8 13 30.10 1019 10 16 0.00 0.00
3:53 pm 15:53 Cloudy 48 8.9 30 -1.1 50 50 W 10 17 30.10 1019 10 16 0.00 0.00
4:53 pm 16:53 Cloudy 49 9.4 29 -1.7 46 46 WNW 13 20 30.10 1019 10 16 0.00 0.00
5:53 pm 17:53 Cloudy 47 8.3 30 -1.1 52 52 W 8 13 30.12 1020 10 16 0.00 0.00
6:53 pm 18:53 Mostly Clear 43 6.1 32 0 65 65 NNW 9 15 30.15 1021 10 16 0.00 0.00
7:53 pm 19:53 Clear 42 5.6 31 -0.6 65 65 NW 7 11 30.17 1022 10 16 0.00 0.00
8:53 pm 20:53 Clear 40 4.4 31 -0.6 70 70 NW 3 6 30.18 1022 10 16 0.00 0.00
9:53 pm 21:53 Clear 37 2.8 31 -0.6 79 79 Calm 30.19 1022 10 16 0.00 0.00
10:53 pm 22:53 Clear 35 1.7 29 -1.7 78 78 SW 5 7 30.18 1022 10 16 0.00 0.00
11:53 pm 23:53 Clear 34 1.1 29 -1.7 82 82 WSW 6 9 30.17 1022 10 16 0.00 0.00

Powered by AerisWeather